User: anonymous   Login
Location: Unspecified
(0.0000°N, 0.0000°E)
Time: 13:49:08
(UTC+00:00)
Language:

TOPSAT - Orbit

View from above orbital plane
View from above orbital plane
View from above satellite
View from above satellite

Ground track
Ground track

The orbit data is extracted from the following two-line orbital elements,

1 28891U 05043B   17114.85512784 +.00000091 +00000-0 +27472-4 0  9990
2 28891 097.8762 272.8382 0015973 328.5392 031.4858 14.61262864612567
Epoch (UTC): 24 April 2017 20:31:23
Eccentricity: 0.0015973
inclination: 97.8762°
perigee height: 678 km
apogee height: 700 km
right ascension of ascending node: 272.8382°
argument of perigee: 328.5392°
revolutions per day: 14.61262864
mean anomaly at epoch: 31.4858°
orbit number at epoch: 61256

The dashed part of the orbit path shows where the satellite is in the earth's shadow,  

DLR